Dewpoint
58 46 41 41 27 25 24 23 24 22 20 18 22 21 27 40 44 40 55 54 64 63 71 74 76 77 76 76 76 75 75 75 75 75 74 73 73 71 70 70 68 66 65 64 63 63 63 62 62
55 45 36 34 23 19 18 23 22 22 23 23 21 20 31 43 47 56 55 60 62 65 70 72 76 76 76 76 75 75 75 75 75 75 74 73 73 71 69 69 67 66 64 64 64 63 62 62 62
57 45 30 31 26 20 16 21 22 21 21 21 18 21 32 45 53 55 55 60 62 66 69 71 75 76 76 76 75 75 75 75 75 75 74 73 72 72 70 69 68 65 64 64 64 64 63 63 63
45 42 38 31 25 25 22 22 20 20 21 18 17 20 44 50 57 57 57 60 62 66 68 72 74 75 76 76 75 75 75 75 75 75 74 73 73 72 71 69 69 67 65 65 64 64 64 64 64
48 40 35 30 26 26 23 22 23 21 20 19 19 19 44 50 59 58 57 60 61 66 66 71 74 75 75 76 75 75 75 75 75 75 74 73 73 72 71 70 68 67 66 65 65 65 66 66 66
44 37 31 30 25 28 27 25 25 20 22 23 17 25 45 59 58 56 57 57 61 64 66 69 73 74 74 75 75 75 75 75 75 75 75 74 74 72 71 70 69 68 69 68 67 68 68 69 69
43 33 31 30 28 28 28 30 32 30 27 25 27 25 40 58 60 56 54 55 60 62 66 68 70 72 74 74 75 75 75 75 75 75 74 74 74 73 72 71 70 69 70 70 70 69 69 69 69
36 41 38 32 28 29 34 37 31 31 33 34 26 32 42 52 60 57 57 57 62 64 66 68 69 70 70 72 74 75 75 75 75 75 74 74 74 73 72 71 70 70 70 70 70 70 70 70 70
34 32 36 36 33 33 36 36 37 36 34 35 33 33 41 58 59 58 59 63 64 64 66 68 69 69 69 68 71 74 74 74 74 74 74 73 71 71 70 70 69 70 70 70 70 70 70 70 70
32 31 31 37 38 37 36 35 34 33 32 33 35 36 35 53 55 57 57 57 60 60 65 68 69 69 68 67 68 69 69 70 71 71 71 70 67 67 68 69 69 69 70 70 70 70 70 68 68
25 28 32 32 32 32 31 31 30 29 28 34 34 35 34 41 46 49 54 58 57 60 62 66 68 68 68 66 68 69 68 67 67 67 67 67 66 66 68 66 67 66 69 67 68 68 68 67 66
16 21 24 27 29 29 28 29 28 28 28 31 34 34 35 32 35 40 43 51 58 58 61 63 65 67 67 65 67 67 66 67 67 66 66 66 65 65 65 65 65 65 65 65 65 66 66 66 66
18 19 18 18 18 21 27 26 25 24 25 28 29 31 34 37 37 39 50 49 55 59 62 63 62 64 64 63 65 66 65 66 66 66 66 65 65 64 64 64 64 64 63 64 64 64 65 65 66
18 18 17 16 15 16 16 17 19 20 23 22 24 27 31 36 37 45 51 51 52 58 64 65 64 61 61 61 62 63 64 64 64 65 65 65 64 63 63 62 63 63 63 63 64 64 64 64 65
20 14 15 14 15 16 19 17 18 20 22 21 21 22 26 32 37 42 43 50 53 54 62 66 66 64 61 59 60 62 62 62 62 62 64 65 64 63 62 62 61 62 62 62 63 62 62 62 63
17 14 10 12 16 13 18 15 20 20 21 23 21 21 22 26 34 37 42 48 52 55 62 65 65 64 62 60 60 62 62 63 62 63 64 64 64 63 62 61 61 61 62 62 62 62 61 61 61
17 11 13 12 13 12 16 12 14 17 16 17 19 20 18 19 26 34 42 44 47 52 56 62 65 64 63 61 61 61 63 64 64 65 65 65 65 64 64 63 62 61 62 61 61 62 61 60 60
15 15 14 14 15 15 14 14 17 17 17 17 18 18 19 20 21 26 35 44 46 50 53 57 63 64 64 63 63 64 66 66 67 66 66 66 66 66 64 64 64 62 62 62 61 61 61 60 60
19 18 15 15 16 16 14 14 15 17 16 16 17 19 20 22 23 26 29 39 45 49 52 54 58 59 62 64 64 64 64 66 67 67 67 67 67 67 65 64 64 63 61 62 62 61 61 61 61
14 12 17 17 21 19 17 16 16 16 16 16 16 18 20 21 22 21 25 29 35 45 50 52 55 56 61 61 63 63 63 63 65 66 67 67 68 68 66 65 65 64 63 62 62 62 60 61 61
19 20 22 22 23 20 18 14 15 19 19 17 19 19 19 20 19 20 20 24 30 37 46 51 52 53 58 63 64 61 62 62 63 63 64 66 67 68 68 66 65 65 64 63 63 62 61 60 61
16 25 23 21 21 17 18 13 15 17 18 19 18 17 19 19 20 21 20 21 23 27 31 48 52 53 55 63 63 62 59 60 60 62 62 62 64 66 68 68 66 66 66 65 64 64 62 62 61
19 25 22 23 20 19 19 17 11 13 13 15 18 19 21 30 37 37 34 28 29 25 29 39 55 57 57 64 63 62 57 58 57 59 60 61 63 67 68 68 67 66 66 65 64 63 62 63 62
25 22 21 23 21 18 18 16 14 13 15 18 21 26 36 37 37 37 38 39 40 39 30 42 52 56 59 62 62 60 59 55 57 59 61 62 64 66 68 67 67 67 66 65 65 64 63 62 61
22 22 16 14 14 16 17 18 16 19 20 23 32 35 35 36 37 37 37 40 42 43 41 38 52 53 55 59 60 58 57 55 55 55 59 62 64 65 66 67 66 67 66 66 65 64 64 63 61
22 20 17 14 15 12 17 17 19 22 32 35 36 36 36 35 34 35 37 41 43 43 38 36 43 54 55 57 58 58 56 54 53 57 62 63 65 66 66 67 67 67 66 66 65 65 64 64 62
21 20 22 20 21 19 19 19 22 22 32 33 34 35 35 35 35 34 38 43 44 44 40 40 37 51 53 55 55 55 56 57 58 61 64 65 65 66 67 67 66 66 66 65 64 64 64 63 61
21 23 22 23 18 17 18 19 19 22 22 30 33 33 32 36 38 39 42 44 44 43 41 46 38 44 52 53 53 55 58 59 60 63 64 66 66 66 66 66 66 66 66 65 65 64 63 62 61
23 23 27 26 23 17 17 21 27 27 30 33 33 34 35 39 40 41 43 44 43 40 47 54 39 41 46 49 54 57 61 61 63 64 66 66 66 66 66 66 66 66 65 65 64 63 62 61 60
25 26 27 23 19 26 28 22 26 26 31 34 34 34 38 41 41 42 43 43 40 44 45 52 56 49 44 48 53 57 61 63 65 65 66 66 66 66 66 66 66 66 65 64 63 63 62 61 59
Lifted_Index
7 8 8 7 5 4 3 3 3 3 4 4 4 3 2 1 -1 -1 -0 1 1 -1 -3 -5 -6 -6 -6 -6 -5 -4 -4 -4 -4 -3 -3 -2 -2 -0 1 2 2 3 4 4 5 5 5 5 5
6 7 7 6 5 3 2 3 4 4 5 4 4 3 1 -0 -1 -1 -1 0 0 -1 -3 -5 -6 -6 -6 -6 -5 -5 -4 -4 -4 -4 -3 -3 -2 -1 1 2 2 3 4 4 4 4 4 4 4
5 6 6 6 4 2 2 3 4 5 5 4 4 3 1 -1 -1 -1 -0 0 -0 -1 -3 -4 -6 -6 -6 -6 -5 -5 -5 -5 -5 -4 -4 -3 -2 -1 0 1 2 3 3 3 3 3 3 3 3
4 4 5 5 3 3 4 4 5 5 4 4 4 3 1 -1 -2 -1 -0 0 -0 -1 -2 -4 -5 -6 -6 -6 -6 -5 -5 -5 -5 -5 -4 -4 -3 -2 -1 0 1 2 2 3 3 2 2 2 1
2 3 4 3 3 4 5 5 5 5 4 4 4 2 0 -1 -2 -1 -0 1 0 -1 -2 -4 -5 -5 -6 -6 -6 -6 -6 -5 -5 -5 -5 -4 -4 -3 -1 -0 0 1 1 2 2 1 1 0 -0
2 3 3 3 3 4 5 6 6 5 4 4 4 2 0 -2 -2 -1 0 1 1 -0 -2 -3 -4 -5 -6 -6 -6 -6 -6 -6 -6 -6 -5 -5 -4 -3 -2 -1 -1 -0 -0 0 0 0 -0 -1 -1
2 3 3 3 2 3 5 5 5 4 4 4 4 3 -0 -2 -2 -1 1 2 1 0 -1 -2 -3 -4 -5 -6 -6 -6 -6 -6 -6 -6 -6 -5 -5 -4 -3 -2 -2 -2 -2 -2 -1 -1 -2 -2 -2
3 3 3 3 2 3 4 5 4 4 3 3 4 3 1 -2 -2 -1 1 2 1 0 -1 -2 -3 -3 -4 -5 -6 -6 -6 -6 -6 -6 -6 -5 -5 -4 -4 -3 -2 -2 -2 -3 -3 -3 -3 -3 -3
4 4 4 3 2 2 3 4 4 4 3 3 4 3 2 -1 -2 -1 0 1 1 -0 -1 -2 -3 -3 -3 -4 -4 -5 -5 -5 -6 -5 -5 -5 -4 -4 -3 -3 -3 -3 -3 -3 -3 -3 -4 -3 -3
5 4 4 3 2 2 3 4 4 4 3 3 3 4 3 0 -2 -2 -1 -0 0 -0 -1 -2 -2 -3 -3 -3 -3 -3 -4 -4 -4 -4 -4 -3 -3 -2 -3 -3 -3 -3 -3 -3 -3 -4 -4 -3 -3
5 5 5 4 3 2 3 3 4 4 4 3 3 3 4 2 0 -1 -1 -1 -0 -0 -1 -1 -2 -2 -2 -2 -2 -2 -2 -2 -2 -2 -2 -1 -1 -1 -2 -2 -2 -2 -2 -2 -3 -3 -4 -3 -3
6 7 7 6 5 4 4 3 3 4 4 3 3 4 4 3 2 0 -1 -1 -1 -0 -1 -1 -1 -1 -1 -2 -2 -2 -1 -1 -1 -0 -0 -0 -0 -0 -1 -1 -1 -1 -1 -1 -2 -2 -3 -3 -3
8 8 7 7 6 6 5 4 4 4 4 4 4 4 4 4 3 2 1 -0 -1 -1 -1 -1 -1 -1 -1 -1 -1 -1 -1 -1 -0 -0 0 0 0 0 0 -0 -1 -1 -1 -1 -1 -1 -2 -2 -2
8 8 7 7 7 7 6 5 4 4 4 4 4 4 3 3 4 3 2 1 -0 -1 -2 -2 -1 -0 -0 -0 -0 -0 -0 0 0 0 0 0 1 0 -0 -1 -1 -1 -2 -2 -2 -2 -2 -2 -2
8 7 7 6 7 6 6 5 5 5 5 4 4 4 4 4 4 4 3 2 1 -1 -3 -4 -3 -1 -0 0 1 1 0 -0 -0 -0 -0 0 -0 -1 -1 -2 -3 -3 -3 -4 -4 -3 -3 -2 -1
7 6 5 6 7 7 6 6 6 6 6 5 5 4 4 5 5 4 3 2 1 -0 -2 -4 -4 -3 -2 -0 0 0 -0 -1 -2 -2 -1 -1 -1 -2 -2 -3 -4 -4 -5 -5 -5 -4 -4 -2 -2
6 5 5 6 7 7 7 7 7 8 8 7 6 6 5 5 5 5 4 3 1 0 -1 -3 -4 -4 -3 -2 -1 -1 -2 -2 -3 -3 -2 -2 -2 -3 -3 -4 -4 -5 -5 -5 -5 -5 -4 -3 -2
5 5 6 6 7 7 7 7 8 9 8 8 8 7 6 5 5 6 5 4 2 1 -1 -2 -4 -4 -4 -3 -3 -2 -3 -3 -3 -3 -3 -3 -3 -3 -4 -4 -4 -5 -5 -6 -6 -5 -4 -4 -3
7 7 7 8 8 8 7 7 8 8 9 8 8 8 7 7 6 6 6 5 4 2 0 -1 -3 -4 -4 -4 -4 -3 -4 -4 -4 -4 -4 -4 -4 -4 -4 -4 -5 -5 -6 -6 -6 -5 -5 -4 -3
8 8 8 8 8 8 7 7 7 8 9 9 9 9 9 8 7 7 7 6 5 3 2 0 -1 -3 -4 -4 -4 -4 -4 -4 -5 -5 -5 -5 -4 -4 -4 -5 -5 -5 -6 -6 -6 -5 -5 -4 -3
7 7 8 8 8 8 7 6 7 8 9 9 9 9 9 9 8 8 7 7 6 4 3 2 0 -1 -3 -4 -4 -4 -4 -4 -4 -5 -5 -5 -4 -4 -4 -4 -5 -5 -6 -6 -6 -6 -5 -4 -3
7 7 7 8 7 7 7 5 6 7 8 9 9 9 10 9 9 9 8 7 7 5 4 3 2 0 -2 -3 -4 -4 -4 -4 -4 -4 -4 -4 -4 -4 -4 -4 -5 -5 -5 -6 -6 -6 -5 -4 -4
6 6 7 7 7 6 6 5 5 7 8 9 9 9 9 9 9 9 8 8 7 6 5 4 3 1 -1 -3 -4 -4 -4 -3 -3 -3 -2 -3 -3 -4 -4 -4 -5 -5 -6 -6 -6 -6 -5 -4 -4
6 6 6 6 6 5 5 5 5 7 8 9 9 9 9 9 9 9 9 8 8 7 6 5 4 1 -1 -3 -3 -3 -3 -3 -2 -2 -1 -2 -3 -4 -4 -5 -5 -6 -6 -6 -6 -5 -5 -4 -4
5 4 4 3 3 3 5 5 6 7 8 8 8 8 8 8 9 9 9 8 7 7 6 6 4 2 -0 -2 -2 -3 -2 -2 -2 -1 -1 -2 -3 -4 -5 -6 -6 -6 -6 -6 -5 -5 -5 -4 -4
4 4 3 2 1 3 4 5 5 6 5 5 5 7 7 8 8 9 9 8 7 7 6 6 5 3 1 -0 -1 -2 -2 -2 -1 -0 -0 -2 -3 -4 -5 -6 -6 -6 -6 -5 -5 -5 -4 -4 -4
4 4 3 2 2 2 2 3 3 3 3 2 3 4 5 6 7 8 9 8 7 6 6 5 4 3 2 0 -1 -1 -2 -1 -0 0 -1 -2 -3 -4 -5 -5 -6 -6 -5 -5 -5 -4 -4 -4 -4
4 3 3 2 1 1 1 1 2 2 1 1 1 2 3 4 5 6 7 7 6 5 3 3 4 4 2 1 0 -0 -0 -0 0 -0 -1 -2 -3 -4 -5 -5 -5 -5 -5 -5 -5 -4 -4 -3 -3
3 3 3 2 1 1 0 1 1 2 1 1 1 1 2 2 3 3 4 4 4 2 0 0 2 3 3 2 1 1 0 -0 -1 -1 -2 -3 -3 -4 -5 -5 -5 -5 -5 -4 -4 -4 -3 -3 -2
3 3 3 2 2 1 1 1 2 2 2 1 1 2 2 1 1 1 1 2 2 0 -1 -1 0 3 3 3 2 1 0 -1 -1 -2 -2 -3 -4 -4 -5 -5 -5 -5 -4 -4 -4 -4 -3 -2 -2